Tillbaka till svenska Fidonet
English   Information   Debug  
FILM   0/18
FNEWS_PUBLISH   4926
FN_SYSOP   42201
FN_SYSOP_OLD1   71952
FTP_FIDO   0/2
FTSC_PUBLIC   0/13972
FUNNY   0/4886
GENEALOGY.EUR   0/71
GET_INFO   105
GOLDED   0/408
HAM   3151/16660
HOLYSMOKE   0/6791
HOT_SITES   0/1
HTMLEDIT   0/71
HUB203   466
HUB_100   264
HUB_400   39
HUMOR   0/29
IC   0/2851
INTERNET   0/424
INTERUSER   0/3
IP_CONNECT   719
JAMNNTPD   0/233
JAMTLAND   0/47
KATTY_KORNER   0/41
LAN   0/16
LINUX-USER   0/19
LINUXHELP   0/1155
LINUX   0/22300
LINUX_BBS   0/957
mail   18.68
mail_fore_ok   249
MENSA   0/341
MODERATOR   0/102
MONTE   0/992
MOSCOW_OKLAHOMA   0/1245
MUFFIN   0/783
MUSIC   0/321
N203_STAT   938
N203_SYSCHAT   313
NET203   321
NET204   69
NET_DEV   0/10
NORD.ADMIN   0/101
NORD.CHAT   0/2572
NORD.FIDONET   189
NORD.HARDWARE   0/28
NORD.KULTUR   0/114
NORD.PROG   0/32
NORD.SOFTWARE   0/88
NORD.TEKNIK   0/58
NORD   0/453
OCCULT_CHAT   0/93
OS2BBS   0/787
OS2DOSBBS   0/580
OS2HW   0/42
OS2INET   0/37
OS2LAN   0/134
OS2PROG   0/36
OS2REXX   0/113
OS2USER-L   207
OS2   0/4830
OSDEBATE   0/18996
PASCAL   0/490
PERL   0/457
PHP   0/45
POINTS   0/405
POLITICS   0/29554
POL_INC   0/14731
PSION   103
R20_ADMIN   1133
R20_AMATORRADIO   0/2
R20_BEST_OF_FIDONET   16
R20_CHAT   0/896
R20_DEPP   0/3
R20_DEV   400
R20_ECHO2   1830
R20_ECHOPRES   0/35
R20_ESTAT   0/719
R20_FIDONETPROG...
...RAM.MYPOINT
  0/2
R20_FIDONETPROGRAM   0/22
R20_FIDONET   0/248
R20_FILEFIND   0/24
R20_FILEFOUND   0/22
R20_HIFI   0/3
R20_INFO2   3723
R20_INTERNET   0/12940
R20_INTRESSE   0/60
R20_INTR_KOM   0/99
R20_KANDIDAT.CHAT   42
R20_KANDIDAT   28
R20_KOM_DEV   112
R20_KONTROLL   0/13360
R20_KORSET   0/18
R20_LOKALTRAFIK   0/24
R20_MODERATOR   0/1852
R20_NC   76
R20_NET200   245
R20_NETWORK.OTH...
...ERNETS
  0/13
R20_OPERATIVSYS...
...TEM.LINUX
  0/44
R20_PROGRAMVAROR   0/1
R20_REC2NEC   534
R20_SFOSM   0/341
R20_SF   0/108
R20_SPRAK.ENGLISH   0/1
R20_SQUISH   107
R20_TEST   2
R20_WORST_OF_FIDONET   20
RAR   0/9
RA_MULTI   106
RA_UTIL   0/162
REGCON.EUR   0/2068
REGCON   0/13
SCIENCE   0/1206
SF   0/239
SHAREWARE_SUPPORT   0/5146
SHAREWRE   0/14
SIMPSONS   0/169
STATS_OLD1   0/2539.065
STATS_OLD2   0/2530
STATS_OLD3   0/2395.095
STATS_OLD4   0/1692.25
SURVIVOR   0/495
SYSOPS_CORNER   0/3
SYSOP   0/84
TAGLINES   0/112
TEAMOS2   0/4530
TECH   0/2617
TEST.444   0/105
TRAPDOOR   0/19
TREK   0/755
TUB   0/290
UFO   0/40
UNIX   0/1316
USA_EURLINK   0/102
USR_MODEMS   0/1
VATICAN   0/2740
VIETNAM_VETS   0/14
VIRUS   0/378
VIRUS_INFO   0/201
VISUAL_BASIC   0/473
WHITEHOUSE   0/5187
WIN2000   0/101
WIN32   0/30
WIN95   0/4291
WIN95_OLD1   0/70272
WINDOWS   680/1517
WWB_SYSOP   0/419
WWB_TECH   0/810
ZCC-PUBLIC   0/1
ZEC   4

 
4DOS   0/134
ABORTION   0/7
ALASKA_CHAT   0/506
ALLFIX_FILE   0/1313
ALLFIX_FILE_OLD1   0/7997
ALT_DOS   0/152
AMATEUR_RADIO   0/1039
AMIGASALE   0/14
AMIGA   0/331
AMIGA_INT   0/1
AMIGA_PROG   0/20
AMIGA_SYSOP   0/26
ANIME   0/15
ARGUS   0/924
ASCII_ART   0/340
ASIAN_LINK   0/651
ASTRONOMY   0/417
AUDIO   0/92
AUTOMOBILE_RACING   0/105
BABYLON5   0/17862
BAG   135
BATPOWER   0/361
BBBS.ENGLISH   0/382
BBSLAW   0/109
BBS_ADS   0/5290
BBS_INTERNET   0/507
BIBLE   0/3563
BINKD   0/1119
BINKLEY   0/215
BLUEWAVE   0/2173
CABLE_MODEMS   0/25
CBM   0/46
CDRECORD   0/66
CDROM   0/20
CLASSIC_COMPUTER   0/378
COMICS   0/15
CONSPRCY   0/899
COOKING   41444
COOKING_OLD1   22499/24719
COOKING_OLD2   31881/40862
COOKING_OLD3   0/37489
COOKING_OLD4   16864/35496
COOKING_OLD5   9370
C_ECHO   0/189
C_PLUSPLUS   0/31
DIRTY_DOZEN   0/201
DOORGAMES   0/2285
DOS_INTERNET   0/196
duplikat   6102
ECHOLIST   0/18295
EC_SUPPORT   0/318
ELECTRONICS   0/359
ELEKTRONIK.GER   1534
ENET.LINGUISTIC   0/13
ENET.POLITICS   0/4
ENET.SOFT   0/11701
ENET.SYSOP   34296
ENET.TALKS   0/32
ENGLISH_TUTOR   0/2000
EVOLUTION   0/1335
FDECHO   0/217
FDN_ANNOUNCE   0/7068
FIDONEWS   25062
FIDONEWS_OLD1   0/49742
FIDONEWS_OLD2   0/35949
FIDONEWS_OLD3   0/30874
FIDONEWS_OLD4   0/37224
FIDO_SYSOP   12922
FIDO_UTIL   0/180
FILEFIND   0/209
FILEGATE   0/212
Möte HAM, 16660 texter
 lista första sista föregående nästa
Text 2178, 787 rader
Skriven 2008-03-14 00:01:00 av Amsat List (1:323/120.0)
Ärende: [keps]  orb08073.amsa
=============================
[keps]  orb08073.amsa

Return-Path: <keps-bounces@amsat.org>
X-Rcpt: craig.healy@chowda.com
X-UIDL: 1205468569.4917

SB KEPS @ AMSAT  $ORB08073.O
Orbital Elements  08073.OSCAR

HR AMSAT ORBITAL ELEMENTS FOR OSCAR SATELLITES
FROM WA5QGD FORT WORTH,TX March 13, 2008
Send Subscribe/unsubscribe to KEPS at 
http://www.amsat.org/mailman/listinfo/keps
BID: ORB08073.O
TO ALL RADIO AMATEURS BT

Satellite: AO-07
Catalog number: 07530
Epoch time:      08073.68549084
Element set:     125
Inclination:      101.4789 deg
RA of node:       108.3395 deg
Eccentricity:    0.0012146
Arg of perigee:   089.3977 deg
Mean anomaly:     270.8487 deg
Mean motion:   12.53573682 rev/day
Decay rate:       -2.7e-07 rev/day^2
Epoch rev:           52501
Checksum:              320

Satellite: AO-10
Catalog number: 14129
Epoch time:      08073.57673823
Element set:     483
Inclination:      025.9232 deg
RA of node:       225.7295 deg
Eccentricity:    0.6019596
Arg of perigee:   106.5118 deg
Mean anomaly:     324.4173 deg
Mean motion:   02.05869743 rev/day
Decay rate:        7.2e-07 rev/day^2
Epoch rev:           18613
Checksum:              312

Satellite: UO-11
Catalog number: 14781
Epoch time:      08072.27897199
Element set:    0618
Inclination:      098.1664 deg
RA of node:       104.8112 deg
Eccentricity:    0.0009549
Arg of perigee:   031.9443 deg
Mean anomaly:     328.2345 deg
Mean motion:   14.79625177 rev/day
Decay rate:       3.24e-06 rev/day^2
Epoch rev:           28952
Checksum:              330

Satellite: RS-15
Catalog number: 23439
Epoch time:      08072.96059106
Element set:    0144
Inclination:      064.8187 deg
RA of node:       290.6599 deg
Eccentricity:    0.0150043
Arg of perigee:   141.0497 deg
Mean anomaly:     220.1348 deg
Mean motion:   11.27551702 rev/day
Decay rate:       -3.9e-07 rev/day^2
Epoch rev:           54411
Checksum:              292

Satellite: FO-29
Catalog number: 24278
Epoch time:      08073.79784756
Element set:     724
Inclination:      098.5859 deg
RA of node:       002.5685 deg
Eccentricity:    0.0351318
Arg of perigee:   102.4571 deg
Mean anomaly:     261.6109 deg
Mean motion:   13.52935882 rev/day
Decay rate:        3.3e-07 rev/day^2
Epoch rev:           57149
Checksum:              343

Satellite: SO-33
Catalog number: 25509
Epoch time:      08072.51947921
Element set:    0152
Inclination:      031.4324 deg
RA of node:       142.9386 deg
Eccentricity:    0.0355263
Arg of perigee:   262.0514 deg
Mean anomaly:     093.9645 deg
Mean motion:   14.28200922 rev/day
Decay rate:        7.2e-07 rev/day^2
Epoch rev:           48978
Checksum:              306

Satellite: AO-40
Catalog number: 26609
Epoch time:      08072.46986890
Element set:      21
Inclination:      007.4844 deg
RA of node:       093.3400 deg
Eccentricity:    0.7922017
Arg of perigee:   060.4790 deg
Mean anomaly:     355.1171 deg
Mean motion:   01.25581731 rev/day
Decay rate:      -3.49e-06 rev/day^2
Epoch rev:            3382
Checksum:              296

Satellite: VO-52
Catalog number: 28650
Epoch time:      08072.34772172
Element set:    0879
Inclination:      097.7978 deg
RA of node:       141.5780 deg
Eccentricity:    0.0028427
Arg of perigee:   096.7664 deg
Mean anomaly:     263.6850 deg
Mean motion:   14.81431366 rev/day
Decay rate:       1.81e-06 rev/day^2
Epoch rev:           15426
Checksum:              341

Satellite: PO-63
Catalog number: 29712
Epoch time:      08073.70088411
Element set:     266
Inclination:      097.8858 deg
RA of node:       133.6448 deg
Eccentricity:    0.0013690
Arg of perigee:   336.3346 deg
Mean anomaly:     023.7225 deg
Mean motion:   14.80054613 rev/day
Decay rate:       4.83e-06 rev/day^2
Epoch rev:            6334
Checksum:              306

/EX
SB KEPS @ AMSAT  $ORB08073.D
Orbital Elements  08073.MICROS

HR AMSAT ORBITAL ELEMENTS FOR THE MICROSATS
FROM WA5QGD FORT WORTH,TX March 13, 2008
Send Subscribe/unsubscribe to KEPS at 
http://www.amsat.org/mailman/listinfo/keps
BID: ORB08073.D
TO ALL RADIO AMATEURS BT

Satellite: AO-16
Catalog number: 20439
Epoch time:      08072.91194732
Element set:    0273
Inclination:      098.2220 deg
RA of node:       057.9345 deg
Eccentricity:    0.0011802
Arg of perigee:   101.1428 deg
Mean anomaly:     259.1079 deg
Mean motion:   14.31786596 rev/day
Decay rate:       -3.0e-08 rev/day^2
Epoch rev:           94714
Checksum:              299

Satellite: LO-19
Catalog number: 20442
Epoch time:      08072.55601751
Element set:    0198
Inclination:      098.1960 deg
RA of node:       066.4121 deg
Eccentricity:    0.0012913
Arg of perigee:   101.7130 deg
Mean anomaly:     258.5505 deg
Mean motion:   14.32025541 rev/day
Decay rate:        4.0e-08 rev/day^2
Epoch rev:           94724
Checksum:              268

Satellite: AO-27
Catalog number: 22825
Epoch time:      08072.52027396
Element set:    0920
Inclination:      098.3745 deg
RA of node:       036.2238 deg
Eccentricity:    0.0008249
Arg of perigee:   180.4041 deg
Mean anomaly:     179.7151 deg
Mean motion:   14.29231747 rev/day
Decay rate:      -1.12e-06 rev/day^2
Epoch rev:           75396
Checksum:              307

Satellite: IO-26
Catalog number: 22826
Epoch time:      08072.94107672
Element set:    0624
Inclination:      098.3658 deg
RA of node:       037.5817 deg
Eccentricity:    0.0008760
Arg of perigee:   176.4365 deg
Mean anomaly:     183.6886 deg
Mean motion:   14.29480392 rev/day
Decay rate:       -1.5e-07 rev/day^2
Epoch rev:           75411
Checksum:              334

